www.pogodaiklimat.ru
ПОГОДА в Йорке
Время
и дата
13:53 27.09
14:53 27.09
15:53 27.09
16:53 27.09
17:53 27.09
18:53 27.09
19:53 27.09
20:53 27.09
21:53 27.09
22:53 27.09
23:53 27.09
00:53 28.09
01:53 28.09
02:53 28.09
03:53 28.09
04:53 28.09
05:53 28.09
06:53 28.09
07:53 28.09
08:19 28.09
08:53 28.09
09:53 28.09
10:53 28.09
11:53 28.09
12:53 28.09
13:53 28.09
14:53 28.09
15:53 28.09
16:53 28.09
17:53 28.09
18:53 28.09
19:53 28.09
20:53 28.09
21:53 28.09
22:53 28.09
23:53 28.09
00:53 29.09
01:53 29.09
02:53 29.09
03:53 29.09
04:53 29.09
05:53 29.09
06:53 29.09
07:53 29.09
08:53 29.09
09:53 29.09
10:53 29.09
11:53 29.09
Ветер
(напр.,м/с)
Видим. Явления Облачность Т
(С)
Тd
(С)
f
(%)
Тe
(С)
Тes
(С)
Комфортность P
(гПа)
Po
(гПа)
Тmin
(С)
Tmax
(С)
R
(мм)
R24
(мм)
S
(см)
ЮЗ 5
{8}
16 км 8/2 1800 m
[Ac]
+20.0 +5.6 39 +21 +23 комфорт 1012.6 995.0
З 4 16 км 10/0 2850 m
[Ac]
+18.3 +5.0 41 +18 +20 1012.8 995.0
З 5
{8}
16 км 8/0 3000 m
[Ac]
+19.4 +3.9 36 +20 +21 1013.1 995.3
СЗ 5 16 км 8/0 3000 m
[Ac]
+18.3 +5.0 41 +18 +19 1013.8 996.3
З 3 16 км ясно +15.6 +4.4 47 +15 +16 1014.8 997.0
штиль 0 16 км 5/0 2700 m
[Ac]
+13.3 +5.0 57 +13 +13 1015.6 998.0 +13.3 +20.6
З 3 16 км 2/0 2100 m
[Ac]
+10.6 +5.6 71 +9 +9 1016.3 998.7
штиль 0 16 км ясно +11.7 +5.6 66 +11 +11 1017.1 999.3
З 2 16 км ясно +10.6 +5.6 71 +9 +9 1017.6 1000.0
штиль 0 16 км ясно +10.6 +5.6 71 +10 +10 1018.0 1000.3
штиль 0 16 км ясно +10.0 +5.0 71 +9 +9 1018.5 1000.7
ЮЗ 2 16 км ясно +10.0 +5.0 71 +9 +9 1018.7 1001.0 +8.9 +13.3
З 2 16 км ясно +10.0 +5.0 71 +9 +9 1018.4 1000.7
штиль 0 16 км ясно +6.7 +3.9 82 +6 +6 1018.8 1001.0
штиль 0 16 км ясно +5.6 +4.4 92 +5 +5 1019.1 1001.3
штиль 0 16 км ясно +6.1 +3.9 86 +5 +5 1019.4 1001.7
штиль 0 16 км ясно +6.1 +4.4 89 +5 +5 1020.3 1002.3
З 2 16 км ясно +10.0 +6.1 77 +9 +9 1021.0 1003.0 +5.0 +10.6
З 3 16 км 5/5 780 м +12.2 +6.7 69 +11 +11 1021.6 1003.7
З 2 16 км 8/8 810 м +12.2 +7.2 71 +11 +12 1004.0
нст 3 16 км 10/10 780 м +13.3 +7.2 67 +12 +12 1022.2 1004.3
З 3 16 км 8/8 750 м +15.0 +8.3 64 +14 +15 1022.5 1004.7
нст 3 16 км ясно +16.7 +7.8 56 +17 +24 1022.7 1005.0
нст 3 16 км 8/8 1140 м +17.8 +8.3 54 +18 +20 1022.5 1004.7
СЗ 4 16 км 8/8 1170 м +18.9 +8.9 52 +19 +21 1022.1 1004.3 +10.0 +19.4
СЗ 5 16 км 10/10 1410 м +17.8 +7.8 52 +17 +17 1022.2 1004.3
СЗ 3 16 км 2/2 1800 м +18.9 +7.8 48 +20 +26 1022.3 1004.3
СЗ 4 16 км 8/0 2100 m
[Ac]
+19.4 +7.8 47 +20 +22 1022.5 1004.7
З 2 16 км 8/0 2100 m
[Ac]
+18.3 +8.3 52 +19 +20 1023.0 1005.0
штиль 0 16 км 2/2 1500 м +13.3 +8.9 75 +13 +14 1023.8 1005.7
З 2 16 км 10/8 1500 m
[Ac]
+13.9 +10.0 77 +13 +13 1024.2 1006.3 +13.3 +20.0
З 2 16 км 10/10 1650 м +13.3 +9.4 77 +13 +13 1024.9 1007.0
З 2 16 км 5/2 1500 m
[Ac]
+13.9 +8.9 72 +13 +13 1025.6 1007.6
З 2 16 км ясно +11.7 +8.9 83 +11 +11 1026.3 1008.3
З 2 16 км ясно +10.0 +8.3 89 +8 +8 1026.9 1009.0
СЗ 3 16 км ясно +11.1 +8.9 86 +9 +9 1027.3 1009.3
СЗ 3 16 км ясно +11.1 +8.9 86 +9 +9 1027.7 1009.6 +10.0 +15.0
штиль 0 16 км ясно +10.6 +7.8 83 +10 +10 1027.8 1010.0
С 2 16 км ясно +10.6 +6.7 77 +9 +9 1027.8 1010.0
С 2 16 км ясно +9.4 +6.1 80 +8 +8 1027.9 1010.0
штиль 0 16 км ясно +6.7 +5.0 89 +6 +6 1028.5 1010.3
С 2 16 км ясно +8.3 +6.1 86 +6 +6 1028.6 1010.6
СЗ 3 16 км ясно +10.6 +7.2 79 +9 +9 1029.2 1011.3 +6.7 +11.1
С 3 16 км ясно +12.8 +7.8 72 +11 +12 1029.7 1011.6
СВ 6
{9}
16 км 5/5 840 м +15.0 +7.8 62 +13 +14 1029.9 1012.0
СВ 6
{9}
16 км 5/5 930 м +15.0 +6.7 58 +13 +14 1030.0 1012.0
С 5 16 км 8/8 1050 м +17.2 +7.2 52 +17 +17 1029.8 1011.6
СВ 5
{8}
16 км 8/8 1200 м +17.8 +7.2 50 +17 +18 1029.1 1011.3
Местоположение метеостанции York Airport: широта 39.9194 долгота -76.8769 высота над уровнем моря 146 м.
В архиве по умолчанию представлена погода в Йорке за последние 1-2 суток. Обновление информации о фактической погоде в базе происходит ежечасно! Архивные данные за месяц целиком и за предыдущие месяцы Вы можете получить, выбрав интересующий диапазон дат из раскрывающегося списка и нажав кнопку "Ввод!".
Внимание! Архив погоды МЕТАР в базе сайта по станциям, не включенным в климатический монитор, хранится не более 60 дней. Нет смысла пытаться выбрать более раннюю дату.
*Определитесь, кто Вы:
Внимание! Время в таблицах - местное (без учета летнего времени). Для получения всемирного времени необходимо вычесть поправку, которая равна -5 ч.
Смотрите также архив погоды в соседних городах и на ближайших метеорологических станциях:
Партнеры нашего сайта:      
Пояснения к столбцам:
  • Ветер - указаны скорость ветра в м/с - средняя за 10 мин, порывы в срок и между сроками (в фигурных скобках) и направление, откуда дует ветер: С - северный,
  • СВ - северо-восточный, В - восточный, ЮВ - юго-восточный, Ю - южный, ЮЗ - юго-западный, З - западный, СЗ - северо-западный.
  • Видимость - горизонтальная дальность видимости в метрах или километрах. При видимости от 1 до 10 км при отсутствии осадков обычно наблюдается дымка, при ухудшении видимости до 1 км и менее - туман. В сухую погоду видимость может ухудшаться дымом, пылью или мглою.
  • Явления - указаны атмосферные явления, наблюдавшиеся в срок или в последний час перед сроком; фигурными скобками обозначены явления, наблюдавшиеся между сроками (за 1-3 часа до срока); квадратными скобками обозначены град или гололедные отложения с указанием их диаметра в мм.
  • Облачность - указаны через наклонную черту общая и нижняя облачность в баллах и высота нижней границы облаков в метрах; квадратными скобками обозначены формы облаков: Ci - перистые, Cs - перисто-слоистые, Cc - перисто-кучевые, Ac - высококучевые, As - высокослоистые, Sc - слоисто-кучевые, Ns - слоисто-дождевые, Cu - кучевые, Cb - кучево-дождевые. Подробнее классификацию облаков см. в Атласе облаков (PDF).
  • T - Температура воздуха - температура, измеренная на высоте 2 м над землей.
  • Td - Температура точки росы - температура, при понижении до которой содержащийся в воздухе водяной пар достигнет насыщения.
  • f - Относительная влажность воздуха - влажноcть воздуха, измеренная на высоте 2 м над землей.
  • Te - Эффективная температура - температура, которую ощущает одетый по сезону человек в тени. Характеристика душности погоды. При расчете учитывается влияние влажности воздуха и скорости ветра на теплоощущения человека.
  • Tes - Эффективная температура на солнце - температура, которую ощущает человек, с поправкой на солнечный нагрев. Характеристика знойности погоды. Зависит от высоты солнца над горизонтом, облачности и скорости ветра. Ночью, в пасмурную погоду, а также при ветре 12 м/с и более поправка равна нулю.
  • P - Атмосферное давление - приведенное к уровню моря атмосферное давление.
  • Po - Атмосферное давление - измеренное на уровне метеостанции атмосферное давление.
  • Tmin - Минимальная температура - минимум температуры воздуха на высоте 2 м над землей.
  • Tmax - Максимальная температура - максимум температуры воздуха на высоте 2 м над землей.
  • R - Количество осадков - Количество выпавших осадков за период времени, мм. При наведении курсора мыши на число - период времени, за который выпало указанное количество осадков.
  • R24 - Количество осадков - Количество выпавших осадков за 24 часа, мм.
  • S - Снежный покров - Высота снежного покрова, см. При наведении курсора мыши на число - состояние снежного покрова и степень покрытия местности в баллах.